Regional Weather Roundup
Issued by NWS Huntsville, AL

Home | Current Version | Previous Version | Text Only | Print | Product List | Glossary On
Versions: 1 2 3 4 5 6 7 8 9 10 11 12 13 14 15 16 17 18 19 20 21 22 23 24 25 26 27
000
ASUS44 KHUN 040410
RWRHUN

WEATHER ROUNDUP FOR THE TENNESSEE VALLEY
NATIONAL WEATHER SERVICE HUNTSVILLE AL
1000 PM CST SAT DEC 03 2016

ALZ001>004-040500-
NORTHWEST ALABAMA

CITY           SKY/WX    TMP DP  RH WIND       PRES   REMARKS
COURTLAND HCN    N/A     43 N/A N/A NE6         N/A
RUSSELLVILLE     N/A     41 N/A N/A MISG        N/A
SHOALS AIRPORT CLOUDY    43  39  86 E8        30.19F
SHOALS TVA RES   N/A     43 N/A N/A MISG        N/A
$$

ALZ005>007-016-040500-
NORTH CENTRAL ALABAMA

CITY           SKY/WX    TMP DP  RH WIND       PRES   REMARKS
CULLMAN AG STN   N/A     43 N/A N/A NE6         N/A
DECATUR AP     LGT RAIN  42  42 100 NE6       30.20S FOG
HUNTSVILLE AP  LGT RAIN  44  42  93 NE7       30.19F
MERIDIANVILLE  RAIN      41  37  87 N5        30.20S
REDSTONE ARSN  LGT RAIN  43  43 100 NE6       30.18F FOG
VINEMONT AP    RAIN      42  40  95 E3        30.18F
$$

ALZ008>010-040500-
NORTHEAST ALABAMA

CITY           SKY/WX    TMP DP  RH WIND       PRES   REMARKS
ALBERTVILLE    DRIZZLE   41  41 100 E5        30.17F
FORT PAYNE     LGT RAIN  41  37  87 CALM      30.21R
SCOTTSBORO AP  LGT RAIN  43  43 100 NE5       30.22S
SCOTTSBORO HCN   N/A     43 N/A N/A MISG        N/A
VALLEY HEAD      N/A     41 N/A N/A MISG        N/A
$$

TNZ076-096-097-040500-
SOUTHEASTERN MIDDLE TENNESSEE

CITY           SKY/WX    TMP DP  RH WIND       PRES   REMARKS
TULLAHOMA      CLOUDY    37  37 100 NE7       30.20F WCI  32
WINCHESTER     CLOUDY    39  39 100 NE5       30.21S
$$

...SURROUNDING SITES...

CITY           SKY/WX    TMP DP  RH WIND       PRES   REMARKS
ATLANTA        LGT RAIN  48  42  80 E8        30.19R
ANNISTON       LGT RAIN  44  42  93 NE8       30.18S
BIRMINGHAM     CLOUDY    44  42  93 NE8       30.16F
CHATTANOOGA    LGT RAIN  43  37  79 NE8       30.24R
CORINTH        DRIZZLE   43  41  93 E6        30.17S
DALTON         DRIZZLE   41  41 100 CALM      30.23S
GADSDEN        LGT RAIN  44  42  93 NE12      30.19F FOG
GOLDEN TRNGL   CLOUDY    45  39  81 NE8       30.08F
HALEYVILLE     RAIN      41  40  96 E7        30.18R FOG
JACKSON TN     LGT RAIN  41  32  70 E8        30.19F
MEMPHIS        LGT RAIN  43  41  93 E12       30.15S
NASHVILLE      LGT RAIN  40  36  86 NE7       30.25F
OXFORD MS      LGT RAIN  39  39 100 E10       30.15F WCI  32
ROME           LGT RAIN  43  40  89 NE5       30.21F FOG
SAVANNAH       CLOUDY    41  41 100 NE5       30.18F FOG
TUPELO         LGT RAIN  43  40  89 NE7       30.15F
TUSCALOOSA     CLOUDY    46  43  89 NE6       30.13F
$$

...GULF COAST WEATHER...

CITY           SKY/WX    TMP DP  RH WIND       PRES   REMARKS
GULFPORT       CLOUDY    61  40  45 E13       30.01F
PASCAGOULA     MOCLDY    60  36  40 E10       30.03F
MOBILE         MOCLDY    58  37  45 E13       30.05F
GULF SHORES    CLOUDY    60  40  47 E16       30.07F
PENSACOLA      CLOUDY    61  37  41 E14       30.08S
DESTIN         CLOUDY    61  39  44 E10G16    30.10F
PANAMA CITY    MOCLDY    57  39  50 E9        30.12F
APPALACHICOLA  MOCLDY    58  41  53 E14       30.12F
$$





USA.gov is the U.S. government's official web portal to all federal, state and local government web resources and services.